Vorticity
15 3 -2 31 -2 10 1 -5 11 -6 6 15 15 1 3 5 -7 -24 22 3 -1 1 3 2 -1 0 6 3 5 4 4 2 1 2 2 5 6 17 6 6 7 8 5 6
-7 13 6 6 -7 18 2 2 27 28 13 11 8 3 16 9 6 -2 -0 -10 28 3 3 -0 1 -5 3 4 0 5 4 3 4 3 8 7 10 2 1 10 10 2 -8 -6
11 4 -5 20 -24 6 -2 10 27 7 1 9 -16 55 14 6 8 14 -1 10 20 -3 -2 4 6 -0 -2 2 4 5 6 6 3 5 9 3 6 2 7 12 2 13 -14 21
18 32 5 2 -7 1 20 5 21 -2 -5 6 11 20 1 8 4 5 -1 3 1 4 -7 5 10 9 3 -0 2 6 3 9 15 6 3 5 2 3 7 -8 8 8 14 -9
22 34 -7 -10 8 5 12 53 8 5 -12 21 -21 -1 12 25 -22 5 23 11 3 -3 0 9 1 -8 22 0 5 6 9 6 15 3 4 6 2 3 8 3 2 4 0 4
16 -7 5 7 21 -7 12 5 15 -1 3 8 24 -26 29 -4 -12 28 -12 2 2 5 9 10 2 -3 10 22 2 7 3 11 13 0 4 5 3 7 3 0 10 3 0 -2
-3 7 19 41 10 6 11 3 9 18 18 -4 -11 35 1 8 30 15 5 37 12 8 7 3 1 3 14 12 13 7 9 7 5 6 1 3 2 0 1 2 1 2 2 -0
2 28 13 27 -1 9 4 9 -11 8 6 -17 61 17 2 12 32 20 34 13 26 8 4 5 13 30 5 0 7 24 14 -0 4 9 0 -0 3 5 3 1 1 1 0 9
32 10 1 20 7 20 14 -18 50 -2 11 5 10 4 7 34 9 3 11 8 27 9 9 12 23 9 -5 -3 7 16 2 -2 4 10 3 1 4 4 3 3 3 2 0 10
-3 -4 12 -23 -7 13 1 -10 12 10 4 8 12 16 24 4 -2 21 14 10 17 -8 23 6 1 1 6 5 6 9 3 -3 2 5 7 4 8 6 5 4 3 5 7 13
12 2 9 83 6 2 19 7 14 2 4 9 6 16 11 -20 16 14 27 4 -5 3 3 13 16 16 12 11 12 20 4 -0 5 2 7 5 8 5 5 3 2 -2 19 7
-5 33 7 5 -3 0 9 4 19 6 12 3 10 9 -3 19 -4 8 20 13 11 6 4 3 3 7 15 9 8 13 17 15 10 5 7 6 7 8 5 5 9 9 10 13
8 15 7 24 25 8 10 16 -4 14 19 12 -11 -4 -32 -3 -1 6 2 37 6 12 8 6 6 -1 6 5 3 -0 2 6 3 12 16 10 10 8 6 3 13 6 10 6
2 4 8 -4 -10 -23 -16 36 21 6 15 1 -11 2 12 5 24 8 17 12 25 5 13 9 12 9 12 5 -4 2 2 5 5 6 15 18 15 7 18 5 10 19 9 5
13 7 3 -3 -0 3 14 5 14 11 15 1 2 5 3 23 17 11 17 10 9 24 -2 21 13 11 11 13 13 10 -4 5 9 12 15 19 10 14 16 11 9 -2 6 8
10 8 12 18 3 0 10 1 12 -0 5 -1 29 10 4 6 9 2 -8 -6 -8 4 3 34 5 19 15 8 4 5 8 12 15 12 11 15 8 12 6 4 3 11 8 22
8 4 8 10 7 13 34 15 4 22 5 -0 -2 12 15 2 16 14 10 18 1 10 8 13 15 17 2 3 10 13 13 11 12 11 9 5 4 12 8 10 13 10 -8 28
12 7 12 14 19 14 13 31 10 8 13 20 32 16 19 16 6 4 3 2 15 9 9 7 8 12 14 15 -1 18 14 9 11 10 8 6 8 10 1 32 -2 17 15 5
7 8 3 -2 19 -15 -1 -2 7 13 7 8 6 2 8 1 6 5 -1 -1 15 17 9 9 6 2 16 13 6 7 6 9 7 11 10 9 12 -2 16 22 25 18 8 7
11 9 9 14 8 -4 25 20 15 25 7 5 8 10 2 13 3 1 12 9 10 3 9 5 7 14 14 10 11 9 16 19 12 7 7 3 -2 28 20 22 32 10 5 3
20 12 3 1 5 19 8 2 -2 10 8 10 4 5 -4 -2 11 11 13 9 14 13 8 6 10 11 17 21 20 7 6 7 15 9 -0 15 16 30 -6 30 11 10 -3 1
11 10 24 10 6 14 18 11 3 11 9 2 5 -7 10 7 13 15 12 6 4 4 4 7 9 13 21 16 14 10 10 10 -10 6 21 37 13 26 31 9 7 -2 8 14
10 -3 7 -4 28 2 9 2 15 5 -4 -5 2 9 15 10 11 14 12 6 4 6 9 13 12 14 15 15 15 15 16 17 15 16 30 -2 38 9 15 1 0 9 11 12
6 12 -0 8 9 26 21 19 13 5 -6 6 18 3 9 8 6 6 8 6 4 12 12 9 9 10 4 7 12 9 11 21 32 31 30 22 19 10 -1 2 8 8 13 12
3 10 8 15 10 -10 -9 9 -3 2 -4 8 3 0 7 12 10 7 5 5 18 12 8 8 17 9 7 21 24 27 26 22 19 15 13 15 2 0 8 7 8 8 9 11
15 9 4 11 7 5 5 3 -3 -2 6 0 6 11 15 10 5 -1 16 17 9 11 17 18 17 24 19 15 12 12 10 7 9 11 5 4 8 7 7 7 7 8 7 9
Height
3127 3128 3127 3127 3128 3128 3129 3133 3133 3132 3133 3136 3136 3139 3140 3141 3144 3147 3150 3152 3152 3151 3152 3154 3154 3155 3156 3157 3159 3161 3160 3160 3160 3162 3163 3163 3164 3165 3164 3163 3162 3163 3162 3160
3129 3129 3129 3130 3128 3129 3131 3133 3133 3130 3134 3136 3137 3136 3138 3141 3143 3144 3145 3146 3148 3152 3151 3152 3149 3151 3152 3154 3156 3159 3157 3157 3157 3158 3159 3160 3161 3160 3158 3159 3159 3157 3156 3153
3128 3129 3129 3130 3128 3130 3132 3131 3128 3129 3132 3135 3137 3139 3141 3142 3142 3144 3141 3144 3145 3147 3150 3151 3149 3147 3148 3150 3152 3155 3154 3154 3152 3152 3154 3153 3154 3155 3156 3156 3154 3153 3151 3147
3125 3125 3127 3128 3128 3130 3130 3131 3129 3130 3132 3134 3136 3139 3139 3141 3142 3143 3139 3141 3144 3146 3146 3147 3148 3143 3143 3144 3147 3148 3149 3149 3148 3148 3148 3148 3147 3148 3150 3150 3148 3146 3144 3142
3125 3124 3126 3127 3127 3128 3128 3126 3128 3130 3130 3131 3134 3138 3137 3139 3139 3140 3142 3143 3141 3140 3140 3140 3144 3143 3144 3144 3144 3144 3143 3143 3145 3147 3148 3148 3146 3146 3145 3143 3141 3139 3138 3135
3122 3124 3125 3125 3126 3127 3127 3127 3127 3129 3130 3132 3130 3129 3128 3129 3131 3133 3135 3138 3138 3137 3137 3138 3140 3142 3144 3142 3140 3140 3140 3140 3142 3143 3145 3145 3145 3144 3142 3139 3137 3135 3133 3129
3120 3122 3124 3123 3126 3127 3127 3126 3127 3130 3130 3131 3129 3130 3127 3124 3126 3126 3128 3130 3134 3134 3134 3134 3135 3137 3138 3137 3137 3136 3135 3138 3140 3141 3141 3140 3139 3139 3137 3135 3133 3130 3127 3122
3119 3122 3123 3125 3126 3126 3126 3126 3127 3131 3135 3128 3123 3125 3121 3119 3119 3122 3125 3129 3130 3131 3131 3132 3132 3133 3132 3133 3133 3132 3133 3135 3138 3138 3137 3136 3135 3134 3131 3129 3127 3123 3119 3114
3115 3119 3120 3120 3122 3126 3125 3125 3123 3124 3127 3131 3122 3121 3120 3116 3117 3118 3120 3123 3124 3127 3128 3129 3128 3127 3127 3128 3128 3128 3129 3131 3133 3134 3133 3131 3129 3128 3126 3123 3119 3114 3109 3104
3113 3117 3119 3121 3121 3120 3122 3123 3122 3121 3129 3129 3121 3121 3118 3118 3117 3118 3118 3119 3121 3124 3125 3124 3124 3124 3124 3124 3125 3124 3123 3126 3127 3128 3127 3125 3123 3121 3117 3114 3110 3106 3102 3095
3110 3113 3114 3116 3120 3119 3120 3119 3119 3120 3120 3121 3125 3121 3118 3118 3117 3115 3116 3116 3117 3118 3119 3120 3119 3119 3120 3121 3123 3122 3119 3119 3121 3122 3120 3117 3114 3111 3108 3105 3101 3098 3091 3087
3108 3108 3110 3114 3114 3115 3116 3116 3116 3116 3117 3117 3117 3118 3117 3116 3116 3116 3115 3115 3115 3115 3115 3116 3114 3114 3114 3115 3116 3117 3114 3112 3112 3112 3111 3108 3105 3103 3100 3096 3093 3088 3082 3078
3104 3106 3108 3112 3114 3113 3113 3112 3113 3112 3112 3112 3114 3114 3113 3113 3114 3113 3113 3114 3113 3113 3112 3111 3110 3108 3107 3107 3106 3106 3106 3105 3104 3103 3102 3099 3097 3094 3090 3086 3081 3076 3071 3068
3101 3102 3105 3107 3108 3110 3109 3107 3107 3108 3109 3110 3110 3110 3110 3110 3109 3110 3110 3111 3110 3110 3109 3108 3105 3102 3099 3099 3099 3100 3099 3098 3097 3095 3092 3090 3088 3084 3080 3075 3071 3065 3061 3059
3097 3098 3101 3103 3104 3105 3104 3105 3105 3105 3105 3105 3107 3108 3106 3106 3105 3105 3105 3106 3107 3108 3107 3106 3102 3100 3097 3095 3094 3094 3093 3092 3090 3088 3085 3082 3078 3074 3069 3065 3060 3057 3053 3051
3091 3093 3097 3099 3100 3100 3100 3101 3100 3100 3101 3102 3103 3103 3105 3104 3102 3103 3102 3102 3101 3102 3104 3102 3099 3098 3096 3093 3091 3090 3089 3086 3083 3080 3077 3073 3069 3064 3060 3055 3050 3048 3047 3043
3090 3091 3093 3095 3097 3097 3096 3096 3097 3097 3098 3100 3099 3100 3101 3097 3097 3095 3096 3097 3096 3097 3096 3097 3095 3093 3091 3088 3087 3085 3082 3079 3075 3073 3069 3064 3060 3055 3049 3046 3043 3041 3038 3035
3086 3089 3090 3092 3094 3097 3092 3091 3092 3093 3094 3094 3093 3093 3094 3094 3091 3091 3092 3092 3092 3092 3090 3089 3089 3088 3085 3082 3080 3077 3074 3071 3068 3064 3060 3055 3051 3046 3040 3036 3035 3034 3032 3028
3084 3086 3086 3088 3089 3090 3088 3089 3089 3089 3091 3090 3090 3089 3090 3091 3090 3089 3090 3089 3088 3087 3084 3081 3080 3079 3078 3076 3074 3071 3067 3064 3059 3054 3050 3046 3041 3035 3030 3033 3032 3030 3026 3023
3079 3080 3083 3084 3085 3086 3084 3085 3085 3086 3086 3087 3087 3088 3088 3087 3087 3086 3084 3083 3082 3080 3077 3075 3075 3073 3071 3068 3065 3063 3060 3053 3048 3043 3040 3035 3031 3025 3027 3028 3027 3024 3021 3018
3073 3075 3078 3080 3081 3081 3080 3082 3082 3084 3088 3083 3084 3084 3084 3084 3084 3083 3080 3077 3073 3072 3072 3071 3069 3067 3065 3061 3057 3054 3048 3045 3043 3037 3032 3027 3025 3022 3024 3022 3019 3018 3014 3010
3069 3072 3074 3077 3079 3078 3076 3078 3080 3080 3079 3080 3080 3079 3078 3079 3078 3076 3073 3070 3068 3067 3066 3066 3063 3060 3057 3055 3053 3049 3044 3039 3034 3029 3025 3021 3021 3021 3018 3014 3011 3009 3006 3002
3068 3069 3071 3074 3074 3073 3073 3073 3074 3075 3077 3077 3075 3074 3074 3073 3072 3069 3068 3067 3065 3062 3060 3058 3055 3052 3050 3047 3045 3042 3038 3034 3030 3025 3020 3020 3016 3014 3010 3006 3004 3002 2999 2995
3064 3066 3068 3071 3072 3071 3071 3072 3070 3069 3070 3070 3070 3070 3069 3067 3065 3063 3062 3061 3057 3053 3051 3049 3046 3043 3040 3038 3035 3032 3028 3025 3022 3019 3015 3013 3010 3006 3003 3000 2997 2995 2992 2988
3061 3063 3065 3066 3069 3066 3066 3066 3065 3065 3065 3064 3065 3065 3063 3061 3059 3057 3055 3053 3049 3046 3042 3039 3036 3034 3031 3027 3024 3022 3019 3016 3013 3011 3008 3005 3001 2999 2997 2994 2991 2987 2984 2980
3055 3058 3060 3060 3062 3060 3061 3062 3062 3062 3062 3060 3060 3058 3056 3054 3052 3050 3047 3044 3041 3038 3035 3031 3028 3025 3022 3020 3017 3014 3012 3010 3007 3004 3001 2998 2995 2992 2989 2987 2983 2979 2976 2972